When you browse on this site, cookies collect data to enhance your experience and personalize the content and advertising you see.
Visit our Privacy Policy to learn more. By continuing to use the site, you agree to this use of cookies and data.
  • In Lithuania
  • List of Countries
  • For 7 days
  • Water Temperature
  • Satellite Maps
  • Weather Map
  • Weather Widgets
  • user-avatar
    Login

    Hourly Weather Firovo

    Today, 23 February, Saturday

    Time Temperature Precipitation Wind Pressure Humidity
    00:00 -14°C° 0 mm 2 mps 756 mmHg 90%
    01:00 -14°C° 0 mm 2 mps 756 mmHg 91%
    02:00 -15°C° 0 mm 2 mps 756 mmHg 93%
    03:00 -15°C° 0 mm 2 mps 756 mmHg 93%
    04:00 -14°C° 0 mm 2 mps 756 mmHg 92%
    05:00 -14°C° 0 mm 2 mps 755 mmHg 92%
    06:00 -13°C° 0 mm 2 mps 755 mmHg 86%
    07:00 -13°C° 0 mm 3 mps 755 mmHg 81%
    08:00 -12°C° 0 mm 3 mps 755 mmHg 74%
    09:00 -11°C° 0 mm 4 mps 754 mmHg 75%
    10:00 -10°C° 0 mm 4 mps 753 mmHg 76%
    11:00 -10°C° 0 mm 5 mps 752 mmHg 77%
    12:00 -10°C° 0.7 mm 5 mps 752 mmHg 82%
    13:00 -10°C° 0.7 mm 5 mps 751 mmHg 87%
    14:00 -10°C° 0.7 mm 5 mps 750 mmHg 92%
    15:00 -10°C° 0.6 mm 5 mps 750 mmHg 92%
    16:00 -8°C° 0.6 mm 5 mps 749 mmHg 92%
    17:00 -8°C° 0.6 mm 5 mps 748 mmHg 91%
    18:00 -7°C° 0.5 mm 4 mps 748 mmHg 92%
    19:00 -7°C° 0.5 mm 4 mps 748 mmHg 93%
    20:00 -5°C° 0.5 mm 4 mps 747 mmHg 94%
    21:00 -4°C° 0.3 mm 4 mps 747 mmHg 94%
    22:00 -3°C° 0.3 mm 4 mps 747 mmHg 94%
    23:00 -1°C° 0.3 mm 3 mps 747 mmHg 94%

    Tomorrow, 24 February, Sunday

    Time Temperature Precipitation Wind Pressure Humidity
    00:00 -1°C° 0.1 mm 3 mps 747 mmHg 95%
    01:00 0°C° 0.1 mm 3 mps 747 mmHg 95%
    02:00 0°C° 0.1 mm 3 mps 747 mmHg 95%
    03:00 0°C° 0 mm 3 mps 747 mmHg 96%
    04:00 0°C° 0 mm 3 mps 747 mmHg 96%
    05:00 0°C° 0 mm 3 mps 747 mmHg 96%
    06:00 0°C° 0 mm 3 mps 747 mmHg 96%
    07:00 +1°C° 0 mm 2 mps 747 mmHg 97%
    08:00 +1°C° 0 mm 2 mps 748 mmHg 97%
    09:00 0°C° 0 mm 3 mps 748 mmHg 97%
    10:00 0°C° 0 mm 3 mps 748 mmHg 98%
    11:00 0°C° 0 mm 3 mps 748 mmHg 99%
    12:00 0°C° 0 mm 3 mps 747 mmHg 98%
    13:00 0°C° 0 mm 3 mps 747 mmHg 98%
    14:00 +1°C° 0 mm 3 mps 747 mmHg 98%
    15:00 0°C° 0 mm 3 mps 746 mmHg 97%
    16:00 0°C° 0 mm 3 mps 746 mmHg 96%
    17:00 0°C° 0 mm 3 mps 745 mmHg 95%
    18:00 0°C° 0 mm 3 mps 745 mmHg 95%
    19:00 -1°C° 0 mm 4 mps 744 mmHg 96%
    20:00 0°C° 0 mm 4 mps 744 mmHg 96%
    21:00 -1°C° 0.1 mm 4 mps 743 mmHg 95%
    22:00 -1°C° 0.1 mm 5 mps 742 mmHg 93%
    23:00 -1°C° 0.1 mm 5 mps 742 mmHg 92%

    Day after tomorrow, 25 February, Monday

    Time Temperature Precipitation Wind Pressure Humidity
    00:00 -1°C° 0.1 mm 5 mps 741 mmHg 92%
    01:00 -1°C° 0.1 mm 5 mps 741 mmHg 92%
    02:00 -1°C° 0.1 mm 4 mps 741 mmHg 92%
    03:00 -1°C° 0 mm 5 mps 741 mmHg 91%
    04:00 -1°C° 0 mm 5 mps 740 mmHg 90%
    05:00 -1°C° 0 mm 5 mps 740 mmHg 89%
    06:00 -2°C° 0.1 mm 5 mps 740 mmHg 89%
    07:00 -2°C° 0.1 mm 5 mps 739 mmHg 89%
    08:00 -2°C° 0.1 mm 5 mps 739 mmHg 88%
    09:00 -2°C° 0.2 mm 5 mps 738 mmHg 88%
    10:00 -2°C° 0.2 mm 5 mps 738 mmHg 88%
    11:00 -2°C° 0.2 mm 6 mps 738 mmHg 87%
    12:00 -2°C° 0.3 mm 6 mps 737 mmHg 87%
    13:00 -1°C° 0.3 mm 5 mps 737 mmHg 88%
    14:00 -1°C° 0.3 mm 5 mps 737 mmHg 88%
    15:00 -1°C° 0.3 mm 5 mps 736 mmHg 88%
    16:00 -1°C° 0.3 mm 5 mps 736 mmHg 88%
    17:00 -1°C° 0.3 mm 5 mps 736 mmHg 88%
    18:00 -1°C° 0.2 mm 5 mps 736 mmHg 88%
    19:00 -2°C° 0.2 mm 6 mps 737 mmHg 88%
    20:00 -2°C° 0.2 mm 6 mps 737 mmHg 87%
    21:00 -1°C° 0 mm 5 mps 737 mmHg 88%
    22:00 -1°C° 0 mm 5 mps 737 mmHg 88%
    23:00 -2°C° 0 mm 4 mps 737 mmHg 89%

    26 February, Tuesday

    Time Temperature Precipitation Wind Pressure Humidity
    00:00 -2°C° 0.1 mm 4 mps 737 mmHg 89%
    01:00 -2°C° 0.1 mm 4 mps 737 mmHg 89%
    02:00 -2°C° 0.1 mm 4 mps 737 mmHg 89%
    03:00 -2°C° 0.2 mm 4 mps 736 mmHg 91%
    04:00 -2°C° 0.2 mm 4 mps 736 mmHg 92%
    05:00 -2°C° 0.2 mm 3 mps 735 mmHg 93%
    06:00 -3°C° 0.2 mm 4 mps 735 mmHg 92%
    07:00 -2°C° 0.2 mm 4 mps 735 mmHg 92%
    08:00 -2°C° 0.2 mm 4 mps 735 mmHg 91%
    09:00 -2°C° 0.1 mm 4 mps 735 mmHg 89%
    10:00 -2°C° 0.1 mm 4 mps 735 mmHg 88%
    11:00 -2°C° 0.1 mm 4 mps 735 mmHg 86%
    12:00 -2°C° 0.1 mm 4 mps 736 mmHg 85%
    13:00 -2°C° 0.1 mm 4 mps 736 mmHg 84%
    14:00 -2°C° 0.1 mm 4 mps 736 mmHg 82%
    15:00 -2°C° 0 mm 4 mps 737 mmHg 84%
    16:00 -3°C° 0 mm 4 mps 738 mmHg 85%
    17:00 -3°C° 0 mm 4 mps 738 mmHg 86%
    18:00 -4°C° 0.1 mm 4 mps 739 mmHg 87%
    19:00 -4°C° 0.1 mm 4 mps 739 mmHg 87%
    20:00 -4°C° 0.1 mm 4 mps 740 mmHg 88%
    21:00 -6°C° 0 mm 3 mps 740 mmHg 89%
    22:00 -7°C° 0 mm 3 mps 740 mmHg 90%
    23:00 -7°C° 0 mm 2 mps 741 mmHg 91%

    27 February, Wednesday

    Time Temperature Precipitation Wind Pressure Humidity
    00:00 -8°C° 0 mm 2 mps 741 mmHg 92%
    01:00 -8°C° 0 mm 2 mps 741 mmHg 93%
    02:00 -9°C° 0 mm 2 mps 742 mmHg 94%
    03:00 -10°C° 0 mm 2 mps 742 mmHg 94%
    04:00 -10°C° 0 mm 2 mps 741 mmHg 95%
    05:00 -10°C° 0 mm 1 mps 741 mmHg 96%
    06:00 -10°C° 0 mm 1 mps 741 mmHg 95%
    07:00 -9°C° 0 mm 1 mps 741 mmHg 94%
    08:00 -9°C° 0 mm 1 mps 740 mmHg 93%
    09:00 -9°C° 0 mm 2 mps 740 mmHg 91%
    10:00 -7°C° 0 mm 2 mps 739 mmHg 88%
    11:00 -6°C° 0 mm 2 mps 738 mmHg 86%
    12:00 -6°C° 0.2 mm 3 mps 737 mmHg 87%
    13:00 -5°C° 0.2 mm 4 mps 736 mmHg 89%
    14:00 -4°C° 0.2 mm 4 mps 735 mmHg 90%
    15:00 -3°C° 0.1 mm 4 mps 735 mmHg 90%
    16:00 -3°C° 0.1 mm 4 mps 734 mmHg 90%
    17:00 -2°C° 0.1 mm 4 mps 734 mmHg 90%
    18:00 -2°C° 0 mm 4 mps 734 mmHg 90%
    19:00 -1°C° 0 mm 3 mps 733 mmHg 91%
    20:00 -1°C° 0 mm 3 mps 733 mmHg 91%
    21:00 -1°C° 0 mm 3 mps 733 mmHg 91%
    22:00 -2°C° 0 mm 4 mps 732 mmHg 91%
    23:00 -2°C° 0 mm 4 mps 732 mmHg 91%

    28 February, Thursday

    Time Temperature Precipitation Wind Pressure Humidity
    00:00 -2°C° 0.1 mm 4 mps 731 mmHg 92%
    01:00 -2°C° 0.1 mm 4 mps 731 mmHg 92%
    02:00 -2°C° 0.1 mm 4 mps 730 mmHg 92%
    03:00 -2°C° 0 mm 4 mps 730 mmHg 92%
    04:00 -2°C° 0 mm 4 mps 730 mmHg 92%
    05:00 -2°C° 0 mm 4 mps 729 mmHg 92%
    06:00 -3°C° 0 mm 4 mps 728 mmHg 92%
    07:00 -3°C° 0 mm 4 mps 728 mmHg 92%
    08:00 -3°C° 0 mm 4 mps 727 mmHg 93%
    09:00 -3°C° 0 mm 4 mps 726 mmHg 92%
    10:00 -3°C° 0 mm 4 mps 726 mmHg 91%
    11:00 -2°C° 0 mm 4 mps 725 mmHg 90%
    12:00 -2°C° 0 mm 4 mps 724 mmHg 91%
    13:00 -2°C° 0 mm 4 mps 723 mmHg 92%
    14:00 -1°C° 0 mm 4 mps 722 mmHg 93%
    15:00 -1°C° 0.6 mm 4 mps 721 mmHg 93%
    16:00 0°C° 0.6 mm 3 mps 721 mmHg 92%
    17:00 0°C° 0.6 mm 3 mps 720 mmHg 92%
    18:00 -1°C° 0.5 mm 3 mps 719 mmHg 92%
    19:00 -1°C° 0.5 mm 3 mps 718 mmHg 92%
    20:00 -1°C° 0.5 mm 3 mps 718 mmHg 93%
    21:00 -1°C° 0 mm 3 mps 717 mmHg 93%
    22:00 -1°C° 0 mm 3 mps 717 mmHg 93%
    23:00 -1°C° 0 mm 3 mps 717 mmHg 94%
    Show more